Time,TemperatureF,DewpointF,PressureIn,WindDirection,WindDirectionDegrees,WindSpeedMPH,WindSpeedGustMPH,Humidity,HourlyPrecipIn,Conditions,Clouds,dailyrainin,SoftwareType,DateUTC
2013-09-16 00:00:00,61.7,41.8,29.35,SE,136,0.0,0.0,48,0.00,,,0.00,VWS V13.01,2013-09-16 04:00:00,
2013-09-16 00:01:00,61.7,41.8,29.35,SE,136,2.2,2.2,48,0.00,,,0.00,VWS V13.01,2013-09-16 04:01:00,
2013-09-16 00:02:00,61.7,41.8,29.35,SE,136,0.0,2.2,48,0.00,,,0.00,VWS V13.01,2013-09-16 04:02:00,
2013-09-16 00:07:00,61.5,42.2,29.35,SE,136,0.0,0.0,49,0.00,,,0.00,VWS V13.01,2013-09-16 04:07:00,
2013-09-16 00:12:00,61.5,42.2,29.35,SE,136,0.0,0.0,49,0.00,,,0.00,VWS V13.01,2013-09-16 04:12:00,
2013-09-16 00:17:00,61.5,42.2,29.35,SE,136,0.0,2.2,49,0.00,,,0.00,VWS V13.01,2013-09-16 04:17:00,
2013-09-16 00:22:00,61.3,42.0,29.35,SE,136,0.0,0.0,49,0.00,,,0.00,VWS V13.01,2013-09-16 04:22:00,
2013-09-16 00:27:00,61.3,42.0,29.35,SE,136,0.0,0.0,49,0.00,,,0.00,VWS V13.01,2013-09-16 04:27:00,
2013-09-16 00:32:00,61.2,42.4,29.35,SE,136,0.0,0.0,50,0.00,,,0.00,VWS V13.01,2013-09-16 04:32:00,
2013-09-16 00:37:00,61.2,42.4,29.35,ESE,108,2.2,2.7,50,0.00,,,0.00,VWS V13.01,2013-09-16 04:37:00,
2013-09-16 00:42:00,61.3,43.1,29.35,SE,135,0.0,2.7,51,0.00,,,0.00,VWS V13.01,2013-09-16 04:42:00,
2013-09-16 00:47:00,61.3,43.6,29.35,ESE,108,0.0,0.0,52,0.00,,,0.00,VWS V13.01,2013-09-16 04:47:00,
2013-09-16 00:52:00,61.2,43.4,29.35,ESE,108,0.0,0.0,52,0.00,,,0.00,VWS V13.01,2013-09-16 04:52:00,
2013-09-16 00:57:00,61.2,43.4,29.35,ESE,108,0.0,0.0,52,0.00,,,0.00,VWS V13.01,2013-09-16 04:57:00,
2013-09-16 01:02:00,61.0,43.2,29.35,ESE,108,0.0,0.0,52,0.00,,,0.00,VWS V13.01,2013-09-16 05:02:00,
2013-09-16 01:07:00,61.0,43.2,29.35,ESE,108,0.0,0.0,52,0.00,,,0.00,VWS V13.01,2013-09-16 05:07:00,
2013-09-16 01:12:00,61.0,43.2,29.35,ESE,108,0.0,0.0,52,0.00,,,0.00,VWS V13.01,2013-09-16 05:12:00,
2013-09-16 01:17:00,60.8,42.6,29.35,ESE,108,0.0,0.0,51,0.00,,,0.00,VWS V13.01,2013-09-16 05:17:00,
2013-09-16 01:22:00,60.8,43.1,29.35,ESE,108,0.0,2.2,52,0.00,,,0.00,VWS V13.01,2013-09-16 05:22:00,
2013-09-16 01:27:00,60.6,43.4,29.35,NNW,342,0.0,0.0,53,0.00,,,0.00,VWS V13.01,2013-09-16 05:27:00,
2013-09-16 01:32:00,60.6,43.4,29.35,NNW,342,0.0,0.0,53,0.00,,,0.00,VWS V13.01,2013-09-16 05:32:00,
2013-09-16 01:37:00,60.6,43.4,29.35,NNW,342,0.0,0.0,53,0.00,,,0.00,VWS V13.01,2013-09-16 05:37:00,
2013-09-16 01:42:00,60.8,43.6,29.35,NNW,344,0.0,2.2,53,0.00,,,0.00,VWS V13.01,2013-09-16 05:42:00,
2013-09-16 01:47:00,60.8,44.1,29.35,NNW,344,0.0,0.0,54,0.00,,,0.00,VWS V13.01,2013-09-16 05:47:00,
2013-09-16 01:52:00,60.8,44.1,29.35,NNW,344,0.0,0.0,54,0.00,,,0.00,VWS V13.01,2013-09-16 05:52:00,
2013-09-16 01:57:00,60.6,43.9,29.35,NNW,344,0.0,0.0,54,0.00,,,0.00,VWS V13.01,2013-09-16 05:57:00,
2013-09-16 02:02:00,60.4,43.7,29.35,NNW,344,0.0,0.0,54,0.00,,,0.00,VWS V13.01,2013-09-16 06:02:00,
2013-09-16 02:07:00,60.4,43.7,29.35,NNW,344,0.0,0.0,54,0.00,,,0.00,VWS V13.01,2013-09-16 06:07:00,
2013-09-16 02:12:00,60.4,44.2,29.35,NNW,344,0.0,0.0,55,0.00,,,0.00,VWS V13.01,2013-09-16 06:12:00,
2013-09-16 02:17:00,60.4,44.7,29.38,East,99,0.0,0.0,56,0.00,,,0.00,VWS V13.01,2013-09-16 06:17:00,
2013-09-16 02:22:00,60.6,44.8,29.38,East,99,0.0,0.0,56,0.00,,,0.00,VWS V13.01,2013-09-16 06:22:00,
2013-09-16 02:27:00,60.4,44.7,29.38,East,99,0.0,0.0,56,0.00,,,0.00,VWS V13.01,2013-09-16 06:27:00,
2013-09-16 02:32:00,60.4,44.7,29.38,East,99,0.0,0.0,56,0.00,,,0.00,VWS V13.01,2013-09-16 06:32:00,
2013-09-16 02:37:00,60.4,44.7,29.38,SE,141,0.0,2.7,56,0.00,,,0.00,VWS V13.01,2013-09-16 06:37:00,
2013-09-16 02:42:00,60.4,44.7,29.38,SE,141,0.0,0.0,56,0.00,,,0.00,VWS V13.01,2013-09-16 06:42:00,
2013-09-16 02:47:00,60.6,44.8,29.38,SE,141,0.0,0.0,56,0.00,,,0.00,VWS V13.01,2013-09-16 06:47:00,
2013-09-16 02:52:00,60.6,44.8,29.38,SE,141,0.0,0.0,56,0.00,,,0.00,VWS V13.01,2013-09-16 06:52:00,
2013-09-16 02:57:00,60.6,44.8,29.38,SE,141,0.0,0.0,56,0.00,,,0.00,VWS V13.01,2013-09-16 06:57:00,
2013-09-16 03:02:00,60.6,44.8,29.38,SE,141,0.0,0.0,56,0.00,,,0.00,VWS V13.01,2013-09-16 07:02:00,
2013-09-16 03:07:00,60.6,44.8,29.38,SE,141,0.0,0.0,56,0.00,,,0.00,VWS V13.01,2013-09-16 07:07:00,
2013-09-16 03:12:00,60.6,44.8,29.38,SE,141,0.0,0.0,56,0.00,,,0.00,VWS V13.01,2013-09-16 07:12:00,
2013-09-16 03:17:00,60.6,44.8,29.38,SE,141,0.0,0.0,56,0.00,,,0.00,VWS V13.01,2013-09-16 07:17:00,
2013-09-16 03:22:00,60.6,44.8,29.38,SE,141,0.0,0.0,56,0.00,,,0.00,VWS V13.01,2013-09-16 07:22:00,
2013-09-16 03:27:00,60.6,44.8,29.38,SE,141,0.0,0.0,56,0.00,,,0.00,VWS V13.01,2013-09-16 07:27:00,
2013-09-16 03:32:00,60.6,44.8,29.38,SE,141,0.0,0.0,56,0.00,,,0.00,VWS V13.01,2013-09-16 07:32:00,
2013-09-16 03:37:00,60.6,44.8,29.38,SE,141,0.0,0.0,56,0.00,,,0.00,VWS V13.01,2013-09-16 07:37:00,
2013-09-16 03:42:00,60.6,45.3,29.38,SE,141,0.0,0.0,57,0.00,,,0.00,VWS V13.01,2013-09-16 07:42:00,
2013-09-16 03:47:00,60.6,45.3,29.38,SE,141,0.0,0.0,57,0.00,,,0.00,VWS V13.01,2013-09-16 07:47:00,
2013-09-16 03:53:00,60.8,45.5,29.38,SE,141,0.0,0.0,57,0.00,,,0.00,VWS V13.01,2013-09-16 07:53:00,
2013-09-16 03:58:00,60.8,45.5,29.38,SE,141,0.0,0.0,57,0.00,,,0.00,VWS V13.01,2013-09-16 07:58:00,
2013-09-16 04:03:00,61.0,45.7,29.38,SE,141,0.0,0.0,57,0.00,,,0.00,VWS V13.01,2013-09-16 08:03:00,
2013-09-16 04:08:00,61.0,45.7,29.38,SE,141,0.0,0.0,57,0.00,,,0.00,VWS V13.01,2013-09-16 08:08:00,
2013-09-16 04:13:00,61.2,45.8,29.38,SE,141,0.0,0.0,57,0.00,,,0.00,VWS V13.01,2013-09-16 08:13:00,
2013-09-16 04:18:00,61.2,45.8,29.38,SE,141,0.0,0.0,57,0.00,,,0.00,VWS V13.01,2013-09-16 08:18:00,
2013-09-16 04:23:00,61.3,46.5,29.38,SE,141,0.0,0.0,58,0.00,,,0.00,VWS V13.01,2013-09-16 08:23:00,
2013-09-16 04:28:00,61.3,46.5,29.38,SE,141,0.0,0.0,58,0.00,,,0.00,VWS V13.01,2013-09-16 08:28:00,
2013-09-16 04:33:00,61.5,46.6,29.38,SE,141,0.0,0.0,58,0.00,,,0.00,VWS V13.01,2013-09-16 08:33:00,
2013-09-16 04:38:00,61.5,46.6,29.38,SE,141,0.0,0.0,58,0.00,,,0.00,VWS V13.01,2013-09-16 08:38:00,
2013-09-16 04:43:00,61.5,46.6,29.38,SE,141,0.0,0.0,58,0.00,,,0.00,VWS V13.01,2013-09-16 08:43:00,
2013-09-16 04:48:00,61.5,46.6,29.38,SE,141,0.0,0.0,58,0.00,,,0.00,VWS V13.01,2013-09-16 08:48:00,
2013-09-16 04:53:00,61.5,46.6,29.38,SE,141,0.0,0.0,58,0.00,,,0.00,VWS V13.01,2013-09-16 08:53:00,
2013-09-16 04:58:00,61.7,46.8,29.38,SE,141,0.0,0.0,58,0.00,,,0.00,VWS V13.01,2013-09-16 08:58:00,
2013-09-16 05:03:00,61.5,46.6,29.38,SE,141,0.0,0.0,58,0.00,,,0.00,VWS V13.01,2013-09-16 09:03:00,
2013-09-16 05:08:00,61.5,46.6,29.38,SE,141,0.0,0.0,58,0.00,,,0.00,VWS V13.01,2013-09-16 09:08:00,
2013-09-16 05:13:00,61.7,46.8,29.38,SE,141,0.0,0.0,58,0.00,,,0.00,VWS V13.01,2013-09-16 09:13:00,
2013-09-16 05:18:00,61.7,46.8,29.38,SE,141,0.0,2.2,58,0.00,,,0.00,VWS V13.01,2013-09-16 09:18:00,
2013-09-16 05:23:00,61.7,46.8,29.38,SE,141,2.7,2.7,58,0.00,,,0.00,VWS V13.01,2013-09-16 09:23:00,
2013-09-16 05:28:00,61.9,47.0,29.38,SE,141,0.0,0.0,58,0.00,,,0.00,VWS V13.01,2013-09-16 09:28:00,
2013-09-16 05:33:00,61.9,47.4,29.38,SE,141,0.0,0.0,59,0.00,,,0.00,VWS V13.01,2013-09-16 09:33:00,
2013-09-16 05:38:00,61.9,47.4,29.38,SE,141,0.0,0.0,59,0.00,,,0.00,VWS V13.01,2013-09-16 09:38:00,
2013-09-16 05:43:00,61.9,47.0,29.38,SE,141,0.0,0.0,58,0.00,,,0.00,VWS V13.01,2013-09-16 09:43:00,
2013-09-16 05:48:00,61.9,47.0,29.38,SE,141,0.0,0.0,58,0.00,,,0.00,VWS V13.01,2013-09-16 09:48:00,
2013-09-16 05:53:00,61.9,47.0,29.38,SE,141,0.0,0.0,58,0.00,,,0.00,VWS V13.01,2013-09-16 09:53:00,
2013-09-16 05:58:00,61.9,47.0,29.38,SE,141,0.0,0.0,58,0.00,,,0.00,VWS V13.01,2013-09-16 09:58:00,
2013-09-16 06:03:00,61.9,47.0,29.38,SE,141,0.0,0.0,58,0.00,,,0.00,VWS V13.01,2013-09-16 10:03:00,
2013-09-16 06:08:00,61.9,47.0,29.38,SE,141,0.0,0.0,58,0.00,,,0.00,VWS V13.01,2013-09-16 10:08:00,
2013-09-16 06:13:00,61.9,47.0,29.38,SE,141,0.0,0.0,58,0.00,,,0.00,VWS V13.01,2013-09-16 10:13:00,
2013-09-16 06:18:00,61.9,47.0,29.38,SE,141,0.0,0.0,58,0.00,,,0.00,VWS V13.01,2013-09-16 10:18:00,
2013-09-16 06:23:00,61.9,47.0,29.38,SE,141,0.0,0.0,58,0.00,,,0.00,VWS V13.01,2013-09-16 10:23:00,
2013-09-16 06:28:00,61.9,47.0,29.38,SE,141,0.0,0.0,58,0.00,,,0.00,VWS V13.01,2013-09-16 10:28:00,
2013-09-16 06:33:00,61.9,47.4,29.38,SE,141,0.0,0.0,59,0.00,,,0.00,VWS V13.01,2013-09-16 10:33:00,
2013-09-16 06:38:00,61.9,47.4,29.38,SE,141,0.0,0.0,59,0.00,,,0.00,VWS V13.01,2013-09-16 10:38:00,
2013-09-16 06:43:00,61.9,47.4,29.38,SE,141,0.0,0.0,59,0.00,,,0.00,VWS V13.01,2013-09-16 10:43:00,
2013-09-16 06:48:00,61.9,47.4,29.38,SE,141,0.0,0.0,59,0.00,,,0.00,VWS V13.01,2013-09-16 10:48:00,
2013-09-16 06:53:00,61.9,47.4,29.38,SE,141,0.0,2.2,59,0.00,,,0.00,VWS V13.01,2013-09-16 10:53:00,
2013-09-16 06:58:00,61.9,47.4,29.38,SE,141,0.0,0.0,59,0.00,,,0.00,VWS V13.01,2013-09-16 10:58:00,
2013-09-16 07:03:00,61.9,47.4,29.38,SE,141,0.0,0.0,59,0.00,,,0.00,VWS V13.01,2013-09-16 11:03:00,
2013-09-16 07:08:00,61.9,47.4,29.38,NW,317,0.0,2.2,59,0.00,,,0.00,VWS V13.01,2013-09-16 11:08:00,
2013-09-16 07:13:00,61.9,47.4,29.38,NW,317,0.0,0.0,59,0.00,,,0.00,VWS V13.01,2013-09-16 11:13:00,
2013-09-16 07:18:00,62.1,47.6,29.38,ESE,123,0.0,3.1,59,0.00,,,0.00,VWS V13.01,2013-09-16 11:18:00,
2013-09-16 07:23:00,62.1,47.6,29.38,ESE,111,0.0,2.7,59,0.00,,,0.00,VWS V13.01,2013-09-16 11:23:00,
2013-09-16 07:28:00,62.1,47.6,29.41,ESE,111,0.0,0.0,59,0.00,,,0.00,VWS V13.01,2013-09-16 11:28:00,
2013-09-16 07:33:00,62.1,47.6,29.41,ESE,117,0.0,0.0,59,0.00,,,0.00,VWS V13.01,2013-09-16 11:33:00,
2013-09-16 07:38:00,62.1,47.6,29.41,NE,48,0.0,3.1,59,0.00,,,0.00,VWS V13.01,2013-09-16 11:38:00,
2013-09-16 07:43:00,62.1,48.0,29.41,NNW,342,0.0,0.0,60,0.00,,,0.00,VWS V13.01,2013-09-16 11:43:00,
2013-09-16 07:48:00,62.2,48.2,29.41,NNW,342,0.0,0.0,60,0.00,,,0.00,VWS V13.01,2013-09-16 11:48:00,
2013-09-16 07:53:00,62.2,48.2,29.41,NNW,340,0.0,0.0,60,0.00,,,0.00,VWS V13.01,2013-09-16 11:53:00,
2013-09-16 07:58:00,62.4,48.4,29.41,NNW,340,2.7,2.7,60,0.00,,,0.00,VWS V13.01,2013-09-16 11:58:00,
2013-09-16 08:03:00,62.4,48.4,29.41,NW,305,0.0,0.0,60,0.00,,,0.00,VWS V13.01,2013-09-16 12:03:00,
2013-09-16 08:08:00,62.6,48.5,29.41,WNW,287,0.0,0.0,60,0.00,,,0.00,VWS V13.01,2013-09-16 12:08:00,
2013-09-16 08:13:00,62.6,48.1,29.41,SSE,152,2.7,3.6,59,0.00,,,0.00,VWS V13.01,2013-09-16 12:13:00,
2013-09-16 08:18:00,62.6,48.1,29.41,SE,145,0.0,0.0,59,0.00,,,0.00,VWS V13.01,2013-09-16 12:18:00,
2013-09-16 08:23:00,62.6,48.1,29.41,SSE,148,0.0,0.0,59,0.00,,,0.00,VWS V13.01,2013-09-16 12:23:00,
2013-09-16 08:28:00,62.6,48.1,29.41,SE,126,0.0,0.0,59,0.00,,,0.00,VWS V13.01,2013-09-16 12:28:00,
2013-09-16 08:33:00,62.6,48.1,29.41,SSW,211,0.0,0.0,59,0.00,,,0.00,VWS V13.01,2013-09-16 12:33:00,
2013-09-16 08:38:00,62.6,48.5,29.41,SE,142,0.0,2.7,60,0.00,,,0.00,VWS V13.01,2013-09-16 12:38:00,
2013-09-16 08:43:00,62.6,48.5,29.41,ESE,112,0.0,2.2,60,0.00,,,0.00,VWS V13.01,2013-09-16 12:43:00,
2013-09-16 08:48:00,62.8,48.7,29.41,ESE,112,0.0,0.0,60,0.00,,,0.00,VWS V13.01,2013-09-16 12:48:00,
2013-09-16 08:53:00,63.0,48.9,29.41,ESE,112,0.0,0.0,60,0.00,,,0.00,VWS V13.01,2013-09-16 12:53:00,
2013-09-16 08:58:00,63.0,48.9,29.41,SE,125,0.0,3.1,60,0.00,,,0.00,VWS V13.01,2013-09-16 12:58:00,
2013-09-16 09:03:00,63.1,49.0,29.41,ENE,59,2.7,3.6,60,0.00,,,0.00,VWS V13.01,2013-09-16 13:03:00,
2013-09-16 09:08:00,63.3,49.2,29.41,NE,56,0.0,0.0,60,0.00,,,0.00,VWS V13.01,2013-09-16 13:08:00,
2013-09-16 09:13:00,63.5,49.4,29.44,WNW,303,0.0,2.7,60,0.00,,,0.00,VWS V13.01,2013-09-16 13:13:00,
2013-09-16 09:18:00,63.7,49.5,29.44,NW,325,2.7,2.7,60,0.00,,,0.00,VWS V13.01,2013-09-16 13:18:00,
2013-09-16 09:23:00,63.7,49.5,29.44,NW,314,2.7,2.7,60,0.00,,,0.00,VWS V13.01,2013-09-16 13:23:00,
2013-09-16 09:28:00,63.9,49.7,29.44,NNW,337,2.2,4.0,60,0.00,,,0.00,VWS V13.01,2013-09-16 13:28:00,
2013-09-16 09:33:00,64.0,50.3,29.44,NNE,32,0.0,2.2,61,0.00,,,0.00,VWS V13.01,2013-09-16 13:33:00,
2013-09-16 09:38:00,64.0,49.9,29.44,NNE,32,2.7,2.7,60,0.00,,,0.00,VWS V13.01,2013-09-16 13:38:00,
2013-09-16 09:43:00,64.0,49.9,29.44,South,174,0.0,0.0,60,0.00,,,0.00,VWS V13.01,2013-09-16 13:43:00,
2013-09-16 09:48:00,64.0,49.9,29.44,SE,136,0.0,2.7,60,0.00,,,0.00,VWS V13.01,2013-09-16 13:48:00,
2013-09-16 09:53:00,64.0,49.9,29.44,ESE,115,3.1,3.1,60,0.00,,,0.00,VWS V13.01,2013-09-16 13:53:00,
2013-09-16 09:58:00,64.0,49.9,29.44,SSE,149,3.6,4.0,60,0.00,,,0.00,VWS V13.01,2013-09-16 13:58:00,
2013-09-16 10:03:00,64.0,49.9,29.44,ESE,120,0.0,4.0,60,0.00,,,0.00,VWS V13.01,2013-09-16 14:03:00,
2013-09-16 10:08:00,64.2,50.1,29.44,ESE,107,3.6,3.6,60,0.00,,,0.00,VWS V13.01,2013-09-16 14:08:00,
2013-09-16 10:13:00,64.4,50.2,29.44,ENE,77,4.0,4.0,60,0.00,,,0.00,VWS V13.01,2013-09-16 14:13:00,
2013-09-16 10:18:00,64.8,50.6,29.44,SE,146,2.7,5.4,60,0.00,,,0.00,VWS V13.01,2013-09-16 14:18:00,
2013-09-16 10:23:00,65.1,50.9,29.44,ESE,107,0.0,4.5,60,0.00,,,0.00,VWS V13.01,2013-09-16 14:23:00,
2013-09-16 10:28:00,65.3,50.6,29.44,SSE,148,2.7,4.0,59,0.00,,,0.00,VWS V13.01,2013-09-16 14:28:00,
2013-09-16 10:33:00,65.3,50.6,29.44,SE,138,4.9,5.4,59,0.00,,,0.00,VWS V13.01,2013-09-16 14:33:00,
2013-09-16 10:38:00,65.1,49.5,29.44,ESE,122,4.0,5.4,57,0.00,,,0.00,VWS V13.01,2013-09-16 14:38:00,
2013-09-16 10:44:00,65.1,49.0,29.44,ESE,122,3.1,4.9,56,0.00,,,0.00,VWS V13.01,2013-09-16 14:44:00,
2013-09-16 10:49:00,65.3,48.7,29.44,ESE,118,3.1,4.9,55,0.00,,,0.00,VWS V13.01,2013-09-16 14:49:00,
2013-09-16 10:54:00,65.3,48.2,29.44,ESE,112,2.7,4.9,54,0.00,,,0.00,VWS V13.01,2013-09-16 14:54:00,
2013-09-16 10:59:00,65.5,48.4,29.44,NE,34,4.9,4.9,54,0.00,,,0.00,VWS V13.01,2013-09-16 14:59:00,
2013-09-16 11:04:00,65.7,48.1,29.44,ESE,110,0.0,5.8,53,0.00,,,0.00,VWS V13.01,2013-09-16 15:04:00,
2013-09-16 11:09:00,65.7,48.1,29.44,East,89,3.1,4.0,53,0.00,,,0.00,VWS V13.01,2013-09-16 15:09:00,
2013-09-16 11:14:00,65.7,47.1,29.47,East,101,2.7,3.6,51,0.00,,,0.00,VWS V13.01,2013-09-16 15:14:00,
2013-09-16 11:19:00,65.7,46.0,29.47,East,95,4.0,6.3,49,0.00,,,0.00,VWS V13.01,2013-09-16 15:19:00,
2013-09-16 11:24:00,65.7,44.9,29.47,ESE,111,3.1,5.4,47,0.00,,,0.00,VWS V13.01,2013-09-16 15:24:00,
2013-09-16 11:29:00,65.8,44.5,29.47,ESE,111,3.1,4.9,46,0.00,,,0.00,VWS V13.01,2013-09-16 15:29:00,
2013-09-16 11:34:00,66.0,44.1,29.47,East,92,0.0,4.0,45,0.00,,,0.00,VWS V13.01,2013-09-16 15:34:00,
2013-09-16 11:39:00,66.2,44.2,29.47,SE,145,2.7,5.8,45,0.00,,,0.00,VWS V13.01,2013-09-16 15:39:00,
2013-09-16 11:44:00,66.2,43.7,29.47,SE,130,3.1,6.3,44,0.00,,,0.00,VWS V13.01,2013-09-16 15:44:00,
2013-09-16 11:49:00,66.6,43.4,29.47,ESE,115,5.4,5.4,43,0.00,,,0.00,VWS V13.01,2013-09-16 15:49:00,
2013-09-16 11:54:00,66.7,41.7,29.47,East,98,3.6,5.8,40,0.00,,,0.00,VWS V13.01,2013-09-16 15:54:00,
2013-09-16 11:59:00,66.7,40.3,29.47,ESE,119,5.8,6.3,38,0.00,,,0.00,VWS V13.01,2013-09-16 15:59:00,
2013-09-16 12:04:00,67.1,41.3,29.47,SE,143,5.8,6.3,39,0.00,,,0.00,VWS V13.01,2013-09-16 16:04:00,
2013-09-16 12:09:00,67.1,39.3,29.47,ESE,120,3.1,6.3,36,0.00,,,0.00,VWS V13.01,2013-09-16 16:09:00,
2013-09-16 12:14:00,67.3,38.7,29.47,South,180,3.1,6.3,35,0.00,,,0.00,VWS V13.01,2013-09-16 16:14:00,
2013-09-16 12:19:00,67.5,38.1,29.47,ESE,117,5.8,6.3,34,0.00,,,0.00,VWS V13.01,2013-09-16 16:19:00,
2013-09-16 12:24:00,67.8,38.5,29.47,SE,139,4.0,6.3,34,0.00,,,0.00,VWS V13.01,2013-09-16 16:24:00,
2013-09-16 12:29:00,68.0,37.8,29.47,South,170,2.7,6.3,33,0.00,,,0.00,VWS V13.01,2013-09-16 16:29:00,
2013-09-16 12:34:00,68.2,38.0,29.47,SSE,154,3.1,5.8,33,0.00,,,0.00,VWS V13.01,2013-09-16 16:34:00,
2013-09-16 12:39:00,68.7,37.7,29.47,SSE,149,0.0,5.8,32,0.00,,,0.00,VWS V13.01,2013-09-16 16:39:00,
2013-09-16 12:44:00,69.1,38.0,29.47,South,187,2.7,5.4,32,0.00,,,0.00,VWS V13.01,2013-09-16 16:44:00,
2013-09-16 12:49:00,69.4,36.7,29.47,SE,146,0.0,7.2,30,0.00,,,0.00,VWS V13.01,2013-09-16 16:49:00,
2013-09-16 12:54:00,69.8,35.3,29.47,SE,131,3.1,7.6,28,0.00,,,0.00,VWS V13.01,2013-09-16 16:54:00,
2013-09-16 12:59:00,70.0,33.5,29.47,SSW,200,4.9,6.7,26,0.00,,,0.00,VWS V13.01,2013-09-16 16:59:00,
2013-09-16 13:04:00,69.8,33.4,29.47,SSE,155,4.0,6.3,26,0.00,,,0.00,VWS V13.01,2013-09-16 17:04:00,
2013-09-16 13:09:00,69.6,34.2,29.47,SSE,154,5.4,5.8,27,0.00,,,0.00,VWS V13.01,2013-09-16 17:09:00,
2013-09-16 13:14:00,69.6,34.2,29.47,South,175,2.7,4.9,27,0.00,,,0.00,VWS V13.01,2013-09-16 17:14:00,
2013-09-16 13:19:00,69.6,33.2,29.47,SE,143,5.4,5.4,26,0.00,,,0.00,VWS V13.01,2013-09-16 17:19:00,
2013-09-16 13:24:00,70.0,32.6,29.47,East,94,0.0,4.0,25,0.00,,,0.00,VWS V13.01,2013-09-16 17:24:00,
2013-09-16 13:29:00,70.2,32.7,29.47,SSE,155,3.6,3.6,25,0.00,,,0.00,VWS V13.01,2013-09-16 17:29:00,
2013-09-16 13:34:00,70.3,32.9,29.47,SSE,147,5.8,5.8,25,0.00,,,0.00,VWS V13.01,2013-09-16 17:34:00,
2013-09-16 13:39:00,70.5,33.0,29.47,SE,131,0.0,5.4,25,0.00,,,0.00,VWS V13.01,2013-09-16 17:39:00,
2013-09-16 13:44:00,70.9,33.3,29.44,SE,139,5.4,5.4,25,0.00,,,0.00,VWS V13.01,2013-09-16 17:44:00,
2013-09-16 13:49:00,71.2,32.6,29.44,East,90,3.1,6.3,24,0.00,,,0.00,VWS V13.01,2013-09-16 17:49:00,
2013-09-16 13:54:00,71.4,31.7,29.44,SSE,147,5.8,5.8,23,0.00,,,0.00,VWS V13.01,2013-09-16 17:54:00,
2013-09-16 13:59:00,71.4,31.7,29.47,SE,139,2.2,5.8,23,0.00,,,0.00,VWS V13.01,2013-09-16 17:59:00,
2013-09-16 14:04:00,71.4,31.7,29.47,ENE,65,5.8,5.8,23,0.00,,,0.00,VWS V13.01,2013-09-16 18:04:00,
2013-09-16 14:09:00,71.4,31.7,29.47,South,172,3.1,7.6,23,0.00,,,0.00,VWS V13.01,2013-09-16 18:09:00,
2013-09-16 14:14:00,72.0,31.1,29.47,SE,131,0.0,2.2,22,0.00,,,0.00,VWS V13.01,2013-09-16 18:14:00,
2013-09-16 14:19:00,72.1,31.2,29.47,ESE,108,4.0,4.9,22,0.00,,,0.00,VWS V13.01,2013-09-16 18:19:00,
2013-09-16 14:24:00,72.0,31.1,29.47,East,101,0.0,4.9,22,0.00,,,0.00,VWS V13.01,2013-09-16 18:24:00,
2013-09-16 14:29:00,72.1,31.2,29.47,East,98,0.0,0.0,22,0.00,,,0.00,VWS V13.01,2013-09-16 18:29:00,
2013-09-16 14:34:00,72.5,30.4,29.47,SSE,158,3.1,3.6,21,0.00,,,0.00,VWS V13.01,2013-09-16 18:34:00,
2013-09-16 14:39:00,72.5,30.4,29.47,SSE,147,2.7,3.6,21,0.00,,,0.00,VWS V13.01,2013-09-16 18:39:00,
2013-09-16 14:44:00,72.3,27.8,29.47,SSE,157,4.5,4.9,19,0.00,,,0.00,VWS V13.01,2013-09-16 18:44:00,
2013-09-16 14:49:00,72.3,27.8,29.47,South,185,2.7,4.0,19,0.00,,,0.00,VWS V13.01,2013-09-16 18:49:00,
2013-09-16 14:54:00,72.3,27.8,29.47,SW,230,2.2,4.9,19,0.00,,,0.00,VWS V13.01,2013-09-16 18:54:00,
2013-09-16 14:59:00,72.7,30.5,29.44,SW,229,0.0,5.8,21,0.00,,,0.00,VWS V13.01,2013-09-16 18:59:00,
2013-09-16 15:04:00,72.5,30.4,29.44,WNW,293,3.1,4.0,21,0.00,,,0.00,VWS V13.01,2013-09-16 19:04:00,
2013-09-16 15:09:00,72.3,27.8,29.44,SSE,162,3.1,3.1,19,0.00,,,0.00,VWS V13.01,2013-09-16 19:09:00,
2013-09-16 15:14:00,72.3,27.8,29.44,South,183,0.0,4.0,19,0.00,,,0.00,VWS V13.01,2013-09-16 19:14:00,
2013-09-16 15:19:00,72.5,27.9,29.44,South,175,3.1,4.0,19,0.00,,,0.00,VWS V13.01,2013-09-16 19:19:00,
2013-09-16 15:24:00,72.3,27.8,29.44,SSW,199,3.1,5.4,19,0.00,,,0.00,VWS V13.01,2013-09-16 19:24:00,
2013-09-16 15:29:00,72.0,27.5,29.44,SW,219,4.9,4.9,19,0.00,,,0.00,VWS V13.01,2013-09-16 19:29:00,
2013-09-16 15:34:00,71.8,27.3,29.44,SW,219,0.0,3.1,19,0.00,,,0.00,VWS V13.01,2013-09-16 19:34:00,
2013-09-16 15:39:00,72.0,29.9,29.44,SW,219,0.0,2.7,21,0.00,,,0.00,VWS V13.01,2013-09-16 19:39:00,
2013-09-16 15:44:00,72.0,29.9,29.44,SW,219,0.0,3.6,21,0.00,,,0.00,VWS V13.01,2013-09-16 19:44:00,
2013-09-16 15:49:00,72.1,27.6,29.44,SW,219,2.2,2.7,19,0.00,,,0.00,VWS V13.01,2013-09-16 19:49:00,
2013-09-16 15:53:00,72.1,27.6,29.44,SW,219,0.0,3.1,19,0.00,,,0.00,VWS V13.01,2013-09-16 19:53:00,
2013-09-16 15:58:00,72.1,30.1,29.44,SW,219,0.0,0.0,21,0.00,,,0.00,VWS V13.01,2013-09-16 19:58:00,
2013-09-16 16:03:00,72.3,30.2,29.44,SW,219,0.0,0.0,21,0.00,,,0.00,VWS V13.01,2013-09-16 20:03:00,
2013-09-16 16:08:00,72.5,27.9,29.44,SW,219,0.0,3.1,19,0.00,,,0.00,VWS V13.01,2013-09-16 20:08:00,
2013-09-16 16:13:00,72.5,27.9,29.44,North,10,0.0,2.2,19,0.00,,,0.00,VWS V13.01,2013-09-16 20:13:00,
2013-09-16 16:18:00,72.1,27.6,29.44,North,10,0.0,0.0,19,0.00,,,0.00,VWS V13.01,2013-09-16 20:18:00,
2013-09-16 16:24:00,71.8,29.8,29.44,North,7,2.7,2.7,21,0.00,,,0.00,VWS V13.01,2013-09-16 20:24:00,
2013-09-16 16:29:00,71.4,30.6,29.44,North,0,2.7,3.1,22,0.00,,,0.00,VWS V13.01,2013-09-16 20:29:00,
2013-09-16 16:34:00,71.1,30.3,29.44,North,350,3.6,4.5,22,0.00,,,0.00,VWS V13.01,2013-09-16 20:34:00,
2013-09-16 16:39:00,70.9,30.2,29.44,North,0,4.0,4.0,22,0.00,,,0.00,VWS V13.01,2013-09-16 20:39:00,
2013-09-16 16:44:00,70.9,30.2,29.44,NNW,330,4.9,6.3,22,0.00,,,0.00,VWS V13.01,2013-09-16 20:44:00,
2013-09-16 16:49:00,71.1,30.3,29.44,NW,305,2.2,6.3,22,0.00,,,0.00,VWS V13.01,2013-09-16 20:49:00,
2013-09-16 16:54:00,71.2,30.5,29.44,North,1,2.7,5.4,22,0.00,,,0.00,VWS V13.01,2013-09-16 20:54:00,
2013-09-16 16:59:00,71.2,30.5,29.44,North,353,0.0,3.1,22,0.00,,,0.00,VWS V13.01,2013-09-16 20:59:00,
2013-09-16 17:04:00,71.4,30.6,29.44,North,0,2.2,2.2,22,0.00,,,0.00,VWS V13.01,2013-09-16 21:04:00,
2013-09-16 17:09:00,71.6,30.8,29.44,ENE,73,0.0,4.0,22,0.00,,,0.00,VWS V13.01,2013-09-16 21:09:00,
2013-09-16 17:14:00,72.0,31.1,29.44,SSW,212,0.0,2.2,22,0.00,,,0.00,VWS V13.01,2013-09-16 21:14:00,
2013-09-16 17:19:00,72.1,31.2,29.44,SSW,198,0.0,4.0,22,0.00,,,0.00,VWS V13.01,2013-09-16 21:19:00,
2013-09-16 17:24:00,72.3,31.4,29.44,SE,135,2.2,2.7,22,0.00,,,0.00,VWS V13.01,2013-09-16 21:24:00,
2013-09-16 17:29:00,72.5,31.5,29.44,North,7,3.1,3.1,22,0.00,,,0.00,VWS V13.01,2013-09-16 21:29:00,
2013-09-16 17:34:00,72.3,31.4,29.44,NNW,336,2.2,4.0,22,0.00,,,0.00,VWS V13.01,2013-09-16 21:34:00,
2013-09-16 17:39:00,72.0,31.1,29.44,ENE,66,2.2,2.7,22,0.00,,,0.00,VWS V13.01,2013-09-16 21:39:00,
2013-09-16 17:44:00,72.0,31.1,29.44,East,92,3.1,4.0,22,0.00,,,0.00,VWS V13.01,2013-09-16 21:44:00,
2013-09-16 17:49:00,71.8,30.9,29.44,NNW,343,0.0,0.0,22,0.00,,,0.00,VWS V13.01,2013-09-16 21:49:00,
2013-09-16 17:54:00,71.6,30.8,29.44,North,0,0.0,4.0,22,0.00,,,0.00,VWS V13.01,2013-09-16 21:54:00,
2013-09-16 17:59:00,71.6,30.8,29.44,WNW,302,2.7,3.1,22,0.00,,,0.00,VWS V13.01,2013-09-16 21:59:00,
2013-09-16 18:04:00,71.2,30.5,29.44,North,353,4.0,4.9,22,0.00,,,0.00,VWS V13.01,2013-09-16 22:04:00,
2013-09-16 18:09:00,71.1,30.3,29.44,North,353,2.7,5.4,22,0.00,,,0.00,VWS V13.01,2013-09-16 22:09:00,
2013-09-16 18:14:00,70.9,30.2,29.44,North,8,0.0,5.4,22,0.00,,,0.00,VWS V13.01,2013-09-16 22:14:00,
2013-09-16 18:19:00,70.7,30.0,29.44,North,8,0.0,0.0,22,0.00,,,0.00,VWS V13.01,2013-09-16 22:19:00,
2013-09-16 18:24:00,70.7,30.0,29.44,NW,320,0.0,0.0,22,0.00,,,0.00,VWS V13.01,2013-09-16 22:24:00,
2013-09-16 18:29:00,70.5,29.9,29.44,North,349,0.0,2.7,22,0.00,,,0.00,VWS V13.01,2013-09-16 22:29:00,
2013-09-16 18:34:00,70.3,29.7,29.44,West,264,0.0,3.6,22,0.00,,,0.00,VWS V13.01,2013-09-16 22:34:00,
2013-09-16 18:39:00,70.3,29.7,29.44,NW,309,0.0,3.1,22,0.00,,,0.00,VWS V13.01,2013-09-16 22:39:00,
2013-09-16 18:44:00,70.3,29.7,29.44,West,273,0.0,2.2,22,0.00,,,0.00,VWS V13.01,2013-09-16 22:44:00,
2013-09-16 18:49:00,70.3,30.8,29.44,SE,139,2.2,2.2,23,0.00,,,0.00,VWS V13.01,2013-09-16 22:49:00,
2013-09-16 18:54:00,70.2,30.7,29.44,South,179,0.0,0.0,23,0.00,,,0.00,VWS V13.01,2013-09-16 22:54:00,
2013-09-16 18:59:00,70.2,29.6,29.44,ESE,110,3.1,3.1,22,0.00,,,0.00,VWS V13.01,2013-09-16 22:59:00,
2013-09-16 19:04:00,70.0,30.5,29.44,NNE,20,0.0,3.6,23,0.00,,,0.00,VWS V13.01,2013-09-16 23:04:00,
2013-09-16 19:09:00,69.8,30.4,29.44,East,79,0.0,5.4,23,0.00,,,0.00,VWS V13.01,2013-09-16 23:09:00,
2013-09-16 19:14:00,69.6,30.2,29.44,ESE,105,3.1,4.0,23,0.00,,,0.00,VWS V13.01,2013-09-16 23:14:00,
2013-09-16 19:19:00,69.6,30.2,29.44,ESE,112,3.6,3.6,23,0.00,,,0.00,VWS V13.01,2013-09-16 23:19:00,
2013-09-16 19:24:00,69.4,30.1,29.44,ESE,114,3.1,6.3,23,0.00,,,0.00,VWS V13.01,2013-09-16 23:24:00,
2013-09-16 19:29:00,69.3,29.9,29.44,East,89,0.0,4.9,23,0.00,,,0.00,VWS V13.01,2013-09-16 23:29:00,
2013-09-16 19:34:00,69.3,29.9,29.44,NNW,331,0.0,3.6,23,0.00,,,0.00,VWS V13.01,2013-09-16 23:34:00,
2013-09-16 19:39:00,69.1,29.8,29.44,ENE,64,0.0,0.0,23,0.00,,,0.00,VWS V13.01,2013-09-16 23:39:00,
2013-09-16 19:44:00,68.9,29.6,29.47,East,95,0.0,0.0,23,0.00,,,0.00,VWS V13.01,2013-09-16 23:44:00,
2013-09-16 19:49:00,68.9,30.6,29.47,East,95,0.0,0.0,24,0.00,,,0.00,VWS V13.01,2013-09-16 23:49:00,
2013-09-16 19:54:00,68.7,30.5,29.47,East,95,0.0,3.6,24,0.00,,,0.00,VWS V13.01,2013-09-16 23:54:00,
2013-09-16 19:59:00,68.7,30.5,29.47,East,83,2.7,6.3,24,0.00,,,0.00,VWS V13.01,2013-09-16 23:59:00,
2013-09-16 20:04:00,68.5,30.4,29.47,East,101,5.4,5.4,24,0.00,,,0.00,VWS V13.01,2013-09-17 00:04:00,
2013-09-16 20:09:00,68.5,30.4,29.47,East,82,2.2,5.4,24,0.00,,,0.00,VWS V13.01,2013-09-17 00:09:00,
2013-09-16 20:14:00,68.5,30.4,29.47,SE,125,2.2,4.0,24,0.00,,,0.00,VWS V13.01,2013-09-17 00:14:00,
2013-09-16 20:19:00,68.5,30.4,29.47,SSE,154,3.6,5.8,24,0.00,,,0.00,VWS V13.01,2013-09-17 00:19:00,
2013-09-16 20:24:00,68.4,30.2,29.47,East,93,2.7,4.9,24,0.00,,,0.00,VWS V13.01,2013-09-17 00:24:00,
2013-09-16 20:29:00,68.2,30.0,29.47,North,10,0.0,0.0,24,0.00,,,0.00,VWS V13.01,2013-09-17 00:29:00,
2013-09-16 20:34:00,68.2,30.0,29.47,ENE,67,0.0,3.1,24,0.00,,,0.00,VWS V13.01,2013-09-17 00:34:00,
2013-09-16 20:39:00,68.0,30.9,29.47,NE,36,0.0,5.4,25,0.00,,,0.00,VWS V13.01,2013-09-17 00:39:00,
2013-09-16 20:44:00,68.0,30.9,29.47,ESE,114,0.0,4.0,25,0.00,,,0.00,VWS V13.01,2013-09-17 00:44:00,
2013-09-16 20:49:00,67.8,30.7,29.47,ESE,112,3.1,5.4,25,0.00,,,0.00,VWS V13.01,2013-09-17 00:49:00,
2013-09-16 20:54:00,67.8,30.7,29.47,East,101,0.0,3.1,25,0.00,,,0.00,VWS V13.01,2013-09-17 00:54:00,
2013-09-16 20:59:00,67.8,31.7,29.47,SSE,168,2.2,4.0,26,0.00,,,0.00,VWS V13.01,2013-09-17 00:59:00,
2013-09-16 21:04:00,67.6,31.6,29.47,SSE,154,0.0,4.9,26,0.00,,,0.00,VWS V13.01,2013-09-17 01:04:00,
2013-09-16 21:09:00,67.6,31.6,29.47,ESE,113,3.1,4.0,26,0.00,,,0.00,VWS V13.01,2013-09-17 01:09:00,
2013-09-16 21:14:00,67.5,32.3,29.47,ESE,113,2.7,5.4,27,0.00,,,0.00,VWS V13.01,2013-09-17 01:14:00,
2013-09-16 21:19:00,67.5,32.3,29.47,ESE,115,2.7,4.9,27,0.00,,,0.00,VWS V13.01,2013-09-17 01:19:00,
2013-09-16 21:24:00,67.3,32.2,29.47,ESE,117,4.0,5.8,27,0.00,,,0.00,VWS V13.01,2013-09-17 01:24:00,
2013-09-16 21:29:00,67.3,32.2,29.47,SE,146,0.0,5.8,27,0.00,,,0.00,VWS V13.01,2013-09-17 01:29:00,
2013-09-16 21:34:00,67.3,32.2,29.47,SE,136,3.1,7.6,27,0.00,,,0.00,VWS V13.01,2013-09-17 01:34:00,
2013-09-16 21:39:00,67.1,32.0,29.47,East,83,5.4,6.3,27,0.00,,,0.00,VWS V13.01,2013-09-17 01:39:00,
2013-09-16 21:44:00,67.1,32.9,29.47,SE,128,4.9,5.8,28,0.00,,,0.00,VWS V13.01,2013-09-17 01:44:00,
2013-09-16 21:49:00,67.1,32.0,29.47,SE,144,3.6,4.0,27,0.00,,,0.00,VWS V13.01,2013-09-17 01:49:00,
2013-09-16 21:54:00,66.9,31.9,29.47,East,94,5.8,5.8,27,0.00,,,0.00,VWS V13.01,2013-09-17 01:54:00,
2013-09-16 21:59:00,66.9,31.9,29.50,SE,132,0.0,8.1,27,0.00,,,0.00,VWS V13.01,2013-09-17 01:59:00,
2013-09-16 22:04:00,66.7,31.7,29.50,ESE,107,2.2,4.0,27,0.00,,,0.00,VWS V13.01,2013-09-17 02:04:00,
2013-09-16 22:09:00,66.6,32.5,29.50,NNE,33,3.1,5.4,28,0.00,,,0.00,VWS V13.01,2013-09-17 02:09:00,
2013-09-16 22:14:00,66.6,33.3,29.50,SSE,148,2.2,3.1,29,0.00,,,0.00,VWS V13.01,2013-09-17 02:14:00,
2013-09-16 22:19:00,66.4,34.0,29.50,East,87,3.6,4.9,30,0.00,,,0.00,VWS V13.01,2013-09-17 02:19:00,
2013-09-16 22:24:00,66.2,33.9,29.50,ESE,118,3.1,5.8,30,0.00,,,0.00,VWS V13.01,2013-09-17 02:24:00,
2013-09-16 22:29:00,66.2,33.9,29.50,ESE,110,4.0,4.0,30,0.00,,,0.00,VWS V13.01,2013-09-17 02:29:00,
2013-09-16 22:34:00,66.0,34.5,29.50,SE,142,2.7,4.9,31,0.00,,,0.00,VWS V13.01,2013-09-17 02:34:00,
2013-09-16 22:39:00,66.0,33.7,29.50,ESE,106,3.6,6.3,30,0.00,,,0.00,VWS V13.01,2013-09-17 02:39:00,
2013-09-16 22:44:00,66.0,33.7,29.50,SSE,149,3.6,4.5,30,0.00,,,0.00,VWS V13.01,2013-09-17 02:44:00,
2013-09-16 22:49:00,65.8,34.4,29.50,ESE,118,4.9,6.3,31,0.00,,,0.00,VWS V13.01,2013-09-17 02:49:00,
2013-09-16 22:54:00,65.7,35.0,29.50,East,101,0.0,4.9,32,0.00,,,0.00,VWS V13.01,2013-09-17 02:54:00,
2013-09-16 22:59:00,65.5,35.6,29.50,ESE,116,0.0,3.6,33,0.00,,,0.00,VWS V13.01,2013-09-17 02:59:00,
2013-09-16 23:04:00,65.1,35.3,29.50,East,96,0.0,2.7,33,0.00,,,0.00,VWS V13.01,2013-09-17 03:04:00,
2013-09-16 23:09:00,64.9,35.9,29.50,East,81,3.6,4.9,34,0.00,,,0.00,VWS V13.01,2013-09-17 03:09:00,
2013-09-16 23:14:00,64.9,35.9,29.50,East,88,0.0,4.0,34,0.00,,,0.00,VWS V13.01,2013-09-17 03:14:00,
2013-09-16 23:19:00,64.8,35.8,29.50,East,95,2.2,3.6,34,0.00,,,0.00,VWS V13.01,2013-09-17 03:19:00,
2013-09-16 23:24:00,64.8,35.8,29.50,East,87,3.1,4.9,34,0.00,,,0.00,VWS V13.01,2013-09-17 03:24:00,
2013-09-16 23:29:00,64.8,35.8,29.47,East,85,3.6,5.4,34,0.00,,,0.00,VWS V13.01,2013-09-17 03:29:00,
2013-09-16 23:34:00,64.6,35.6,29.47,ESE,108,4.0,5.4,34,0.00,,,0.00,VWS V13.01,2013-09-17 03:34:00,
2013-09-16 23:39:00,64.8,35.8,29.47,ESE,111,4.0,4.9,34,0.00,,,0.00,VWS V13.01,2013-09-17 03:39:00,
2013-09-16 23:44:00,64.6,35.6,29.50,SE,126,3.1,5.8,34,0.00,,,0.00,VWS V13.01,2013-09-17 03:44:00,
2013-09-16 23:49:00,64.4,35.5,29.50,SE,141,2.7,5.4,34,0.00,,,0.00,VWS V13.01,2013-09-17 03:49:00,
2013-09-16 23:54:00,64.2,35.3,29.50,SE,129,2.7,4.0,34,0.00,,,0.00,VWS V13.01,2013-09-17 03:54:00,
2013-09-16 23:59:00,64.0,35.9,29.50,ESE,117,2.2,4.9,35,0.00,,,0.00,VWS V13.01,2013-09-17 03:59:00,